FW8471 Weather Reports


time (UTC)temp
C
wind
direction
speed
KPH
gust
KPH
rain 1hr
cm
rain 24hr
cm
rain mn
cm
humidity
%
barometer
mb
20260507030200 17 316 1.6 1.6 0.00 0.00 0.00 70 1017.8
20260507025657 17 273 3.2 4.8 0.00 0.00 0.00 70 1017.6
20260507025154 17 307 3.2 3.2 0.00 0.00 0.00 70 1017.9
20260507024652 17 308 3.2 3.2 0.00 0.00 0.00 69 1017.7
20260507024149 18 302 4.8 4.8 0.00 0.00 0.00 69 1017.8
20260507023644 18 310 1.6 1.6 0.00 0.00 0.00 69 1017.6
20260507023142 18 308 3.2 3.2 0.00 0.00 0.00 68 1017.6
20260507022639 18 300 1.6 1.6 0.00 0.00 0.00 68 1017.3
20260507022134 18 291 3.2 4.8 0.00 0.00 0.00 68 1017.5
20260507021631 18 283 6.4 8.0 0.00 0.00 0.00 67 1017.6
20260507021126 18 314 1.6 3.2 0.00 0.00 0.00 67 1017.5
20260507020625 19 319 4.8 4.8 0.00 0.00 0.00 65 1017.5
20260507020121 19 292 3.2 4.8 0.00 0.00 0.00 65 1017.4
20260507015619 19 274 4.8 4.8 0.00 0.00 0.00 64 1017.4
20260507015116 19 348 3.2 4.8 0.00 0.00 0.00 65 1017.3
20260507014613 19 282 4.8 8.0 0.00 0.00 0.00 65 1017.3
20260507014109 19 280 6.4 9.7 0.00 0.00 0.00 64 1017.2
20260507013606 20 306 1.6 3.2 0.00 0.00 0.00 64 1017.1
20260507013103 20 200 6.4 11.3 0.00 0.00 0.00 63 1017.1
20260507012600 20 258 3.2 4.8 0.00 0.00 0.00 62 1017.0
20260507012055 20 326 6.4 8.0 0.00 0.00 0.00 61 1017.0
20260507011554 20 313 8.0 11.3 0.00 0.00 0.00 61 1017.0
20260507011050 20 296 4.8 4.8 0.00 0.00 0.00 61 1017.0
20260507010544 21 233 6.4 9.7 0.00 0.00 0.00 60 1016.7
20260507010041 21 260 6.4 9.7 0.00 0.00 0.00 59 1016.9
20260507005538 21 258 4.8 9.7 0.00 0.00 0.00 59 1016.9
20260507005034 21 292 8.0 9.7 0.00 0.00 0.00 59 1016.7
20260507004532 21 263 6.4 11.3 0.00 0.00 0.00 59 1016.7
20260507004029 21 247 8.0 14.5 0.00 0.00 0.00 58 1017.0
20260507003524 21 301 8.0 14.5 0.00 0.00 0.00 57 1016.7
20260507003020 21 271 8.0 11.3 0.00 0.00 0.00 58 1016.8
20260507002516 22 247 8.0 12.9 0.00 0.00 0.00 56 1016.6
20260507002013 22 227 4.8 8.0 0.00 0.00 0.00 56 1016.7
20260507001509 22 240 8.0 9.7 0.00 0.00 0.00 55 1016.5
20260507001007 22 287 11.3 14.5 0.00 0.00 0.00 56 1016.7
20260507000503 22 275 11.3 14.5 0.00 0.00 0.00 54 1016.9
20260506235958 22 284 9.7 12.9 0.00 0.00 0.00 53 1016.5
20260506235456 22 288 8.0 11.3 0.00 0.00 0.00 52 1016.6
20260506234951 22 232 9.7 12.9 0.00 0.00 0.00 53 1016.6
20260506234449 23 320 14.5 14.5 0.00 0.00 0.00 52 1016.3
20260506233946 22 232 4.8 8.0 0.00 0.00 0.00 52 1016.5
20260506233443 22 238 6.4 9.7 0.00 0.00 0.00 52 1016.4
20260506232939 23 275 8.0 11.3 0.00 0.00 0.00 52 1016.6
20260506232436 22 265 9.7 14.5 0.00 0.00 0.00 52 1016.7
20260506231931 22 291 4.8 8.0 0.00 0.00 0.00 51 1016.7
20260506231429 22 232 12.9 16.1 0.00 0.00 0.00 51 1016.8
20260506230926 23 289 3.2 4.8 0.00 0.00 0.00 50 1016.8
20260506230422 22 282 9.7 12.9 0.00 0.00 0.00 51 1016.9
20260506225919 23 231 4.8 11.3 0.00 0.00 0.00 49 1017.0
20260506225417 22 241 8.0 11.3 0.00 0.00 0.00 50 1016.8
20260506224914 23 292 9.7 14.5 0.00 0.00 0.00 49 1016.9
20260506224411 22 262 3.2 4.8 0.00 0.00 0.00 49 1016.8
20260506223907 22 258 11.3 12.9 0.00 0.00 0.00 51 1017.0
20260506223402 22 289 11.3 12.9 0.00 0.00 0.00 49 1017.1
20260506222900 22 194 6.4 9.7 0.00 0.00 0.00 49 1017.2
20260506222356 22 241 6.4 8.0 0.00 0.00 0.00 50 1017.2
20260506221853 22 279 9.7 11.3 0.00 0.00 0.00 49 1017.4
20260506221350 22 280 11.3 12.9 0.00 0.00 0.00 49 1017.4
20260506220848 22 202 6.4 9.7 0.00 0.00 0.00 50 1017.3
20260506220343 22 298 8.0 11.3 0.00 0.00 0.00 50 1017.4
20260506215840 22 299 6.4 9.7 0.00 0.00 0.00 51 1017.4
20260506215336 22 320 0.0 1.6 0.00 0.00 0.00 52 1017.4
20260506214832 22 268 11.3 14.5 0.00 0.00 0.00 51 1017.6
20260506214329 21 255 8.0 11.3 0.00 0.00 0.00 51 1017.5
20260506213828 21 282 8.0 11.3 0.00 0.00 0.00 51 1017.6
20260506213324 21 311 3.2 8.0 0.00 0.00 0.00 51 1017.6
20260506212822 22 243 4.8 4.8 0.00 0.00 0.00 51 1017.8
20260506212317 22 286 4.8 8.0 0.00 0.00 0.00 53 1018.1
20260506211812 22 258 6.4 9.7 0.00 0.00 0.00 51 1017.9
20260506211309 21 212 8.0 9.7 0.00 0.00 0.00 50 1018.2
20260506210806 21 288 6.4 8.0 0.00 0.00 0.00 51 1017.9
20260506210257 21 270 4.8 9.7 0.00 0.00 0.00 51 1018.1
20260506205754 21 241 4.8 9.7 0.00 0.00 0.00 53 1018.2
20260506205250 21 173 4.8 9.7 0.00 0.00 0.00 51 1018.4
20260506204747 21 242 9.7 12.9 0.00 0.00 0.00 50 1018.5
20260506204245 21 332 6.4 9.7 0.00 0.00 0.00 50 1018.5
20260506203742 21 335 0.0 0.0 0.00 0.00 0.00 54 1018.4
20260506203239 21 293 6.4 9.7 0.00 0.00 0.00 52 1018.5
20260506202736 21 329 4.8 4.8 0.00 0.00 0.00 52 1018.6
20260506202233 21 198 9.7 11.3 0.00 0.00 0.00 50 1018.6
20260506201730 20 256 3.2 3.2 0.00 0.00 0.00 52 1018.6
20260506201227 20 308 1.6 1.6 0.00 0.00 0.00 52 1018.8
20260506200723 20 160 3.2 4.8 0.00 0.00 0.00 51 1018.6
20260506200220 21 187 4.8 9.7 0.00 0.00 0.00 51 1018.8
20260506195716 20 282 4.8 8.0 0.00 0.00 0.00 52 1018.8
20260506195213 19 303 3.2 3.2 0.00 0.00 0.00 55 1019.0
20260506194710 19 297 6.4 8.0 0.00 0.00 0.00 55 1018.9
20260506194206 20 137 4.8 4.8 0.00 0.00 0.00 53 1018.9
20260506193659 19 284 4.8 8.0 0.00 0.00 0.00 54 1019.0
20260506193155 19 281 3.2 4.8 0.00 0.00 0.00 55 1019.1
20260506192652 18 201 6.4 9.7 0.00 0.00 0.00 56 1018.9
20260506192148 19 288 4.8 9.7 0.00 0.00 0.00 55 1019.2
20260506191646 19 264 8.0 9.7 0.00 0.00 0.00 55 1019.4
20260506191141 18 172 6.4 8.0 0.00 0.00 0.00 56 1019.3
20260506190639 18 217 3.2 4.8 0.00 0.00 0.00 57 1019.1
20260506190135 19 260 6.4 8.0 0.00 0.00 0.00 58 1019.3
20260506185633 18 303 1.6 1.6 0.00 0.00 0.00 57 1019.4
20260506185129 17 315 0.0 1.6 0.00 0.00 0.00 61 1019.6
20260506184626 18 252 8.0 11.3 0.00 0.00 0.00 57 1019.6
20260506184124 17 317 0.0 1.6 0.00 0.00 0.00 59 1019.7
20260506183620 17 208 3.2 4.8 0.00 0.00 0.00 61 1019.7
20260506183116 18 311 1.6 1.6 0.00 0.00 0.00 60 1019.6
20260506182614 17 312 0.0 1.6 0.00 0.00 0.00 62 1020.1
20260506182111 17 82 6.4 9.7 0.00 0.00 0.00 64 1019.6
20260506181609 18 206 8.0 11.3 0.00 0.00 0.00 59 1019.8
20260506181105 17 347 0.0 1.6 0.00 0.00 0.00 63 1019.8
20260506180602 17 327 3.2 4.8 0.00 0.00 0.00 62 1019.7
20260506180059 17 90 1.6 3.2 0.00 0.00 0.00 62 1020.1
20260506175555 17 317 0.0 0.0 0.00 0.00 0.00 60 1020.0
20260506175051 16 306 3.2 4.8 0.00 0.00 0.00 64 1019.7
20260506174550 16 298 3.2 3.2 0.00 0.00 0.00 67 1019.7
20260506174045 16 293 1.6 1.6 0.00 0.00 0.00 65 1019.5
20260506173544 16 242 6.4 8.0 0.00 0.00 0.00 63 1019.7
20260506173040 16 245 3.2 3.2 0.00 0.00 0.00 64 1019.7
20260506172538 16 275 3.2 4.8 0.00 0.00 0.00 65 1019.6
20260506172034 16 208 9.7 11.3 0.00 0.00 0.00 65 1019.7
20260506171531 16 312 1.6 1.6 0.00 0.00 0.00 63 1019.6
20260506171029 16 208 4.8 8.0 0.00 0.00 0.00 65 1019.6
20260506170526 15 318 1.6 1.6 0.00 0.00 0.00 65 1019.6
20260506170023 16 75 1.6 3.2 0.00 0.00 0.00 65 1020.0
20260506165521 16 60 1.6 3.2 0.00 0.00 0.00 65 1019.6
20260506165012 15 71 1.6 3.2 0.00 0.00 0.00 68 1019.5
20260506164509 15 298 1.6 1.6 0.00 0.00 0.00 66 1019.7
20260506164007 15 179 4.8 4.8 0.00 0.00 0.00 66 1019.6
20260506163502 15 201 4.8 4.8 0.00 0.00 0.00 65 1019.6
20260506162956 15 299 1.6 3.2 0.00 0.00 0.00 67 1019.7
20260506162454 15 244 4.8 4.8 0.00 0.00 0.00 68 1019.7
20260506161951 15 258 3.2 3.2 0.00 0.00 0.00 68 1019.6
20260506161449 14 299 1.6 1.6 0.00 0.00 0.00 68 1019.6
20260506160946 14 316 0.0 0.0 0.00 0.00 0.00 68 1019.8
20260506160443 13 318 0.0 1.6 0.00 0.00 0.00 68 1019.5
20260506155941 13 284 3.2 3.2 0.00 0.00 0.00 70 1019.4
20260506155438 14 307 1.6 1.6 0.00 0.00 0.00 68 1019.6
20260506153605 13 311 1.6 3.2 0.00 0.00 0.00 70 1019.6
20260506153102 13 311 0.0 1.6 0.00 0.00 0.00 71 1019.6
20260506152559 13 279 1.6 3.2 0.00 0.00 0.00 71 1019.7
20260506152057 13 230 3.2 3.2 0.00 0.00 0.00 70 1019.4
20260506151555 13 284 4.8 4.8 0.00 0.00 0.00 70 1019.7
20260506151052 13 277 3.2 3.2 0.00 0.00 0.00 70 1019.5
20260506150548 12 312 0.0 0.0 0.00 0.00 0.00 68 1019.7
20260506150045 12 289 1.6 3.2 0.00 0.00 0.00 72 1019.7
20260506145542 13 328 0.0 0.0 0.00 0.00 0.00 71 1019.8
20260506145040 13 301 1.6 1.6 0.00 0.00 0.00 70 1019.6
20260506144536 14 331 0.0 1.6 0.00 0.00 0.00 68 1019.5
20260506144033 13 322 0.0 0.0 0.00 0.00 0.00 71 1019.6
20260506143531 14 306 1.6 1.6 0.00 0.00 0.00 68 1019.5
20260506143029 16 344 0.0 0.0 0.00 0.00 0.00 67 1019.3
20260506142527 15 344 0.0 0.0 0.00 0.00 0.00 67 1019.6
20260506142025 14 344 0.0 0.0 0.00 0.00 0.00 70 1019.2
20260506141522 15 344 0.0 0.0 0.00 0.00 0.00 67 1019.4
20260506141020 15 344 0.0 0.0 0.00 0.00 0.00 69 1019.4
20260506140517 13 344 0.0 0.0 0.00 0.00 0.00 72 1019.5
20260506140015 12 344 0.0 0.0 0.00 0.00 0.00 75 1019.3
20260506135511 11 344 0.0 1.6 0.00 0.00 0.00 76 1019.5
20260506135008 11 341 0.0 0.0 0.00 0.00 0.00 80 1019.6
20260506134504 10 341 0.0 0.0 0.00 0.00 0.00 80 1019.3
20260506134000 10 341 0.0 1.6 0.00 0.00 0.00 82 1019.3
20260506133457 9 340 0.0 0.0 0.00 0.00 0.00 84 1019.2
20260506132954 8 338 0.0 0.0 0.00 0.00 0.00 87 1019.0
20260506132451 8 336 0.0 1.6 0.00 0.00 0.00 90 1019.0
20260506131948 7 336 0.0 0.0 0.00 0.00 0.00 91 1019.1
20260506131445 7 323 1.6 1.6 0.00 0.00 0.00 91 1019.0
20260506130942 7 322 1.6 1.6 0.00 0.00 0.00 92 1019.0
20260506130439 7 326 1.6 1.6 0.00 0.00 0.00 92 1018.7
20260506125936 7 321 1.6 1.6 0.00 0.00 0.00 92 1018.6
20260506125434 7 322 1.6 1.6 0.00 0.00 0.00 92 1018.8
20260506124932 7 324 1.6 1.6 0.00 0.00 0.00 93 1018.7
20260506124430 7 335 1.6 1.6 0.00 0.00 0.00 93 1018.9
20260506123927 7 335 0.0 0.0 0.00 0.00 0.00 93 1018.7
20260506123425 7 333 0.0 0.0 0.00 0.00 0.00 93 1018.6
20260506122922 7 333 0.0 1.6 0.00 0.00 0.00 93 1018.6
20260506122419 7 325 0.0 0.0 0.00 0.00 0.00 93 1018.7
20260506121918 7 323 1.6 1.6 0.00 0.00 0.00 93 1018.8
20260506121414 7 337 0.0 0.0 0.00 0.00 0.00 92 1018.7
20260506120911 7 337 0.0 0.0 0.00 0.00 0.00 92 1018.6
20260506120409 7 337 0.0 0.0 0.00 0.00 0.00 92 1018.7
20260506115906 7 339 1.6 1.6 0.00 0.00 0.00 91 1018.7
20260506115404 7 342 1.6 1.6 0.00 0.00 0.00 91 1018.6
20260506114902 7 341 1.6 3.2 0.00 0.00 0.00 91 1018.6
20260506114359 7 343 1.6 3.2 0.00 0.00 0.00 91 1018.9
20260506113858 7 343 1.6 3.2 0.00 0.00 0.00 91 1018.6
20260506113355 7 342 1.6 3.2 0.00 0.00 0.00 92 1018.6
20260506112851 7 338 0.0 0.0 0.00 0.00 0.00 91 1018.6
20260506112348 7 337 0.0 0.0 0.00 0.00 0.00 91 1018.6
20260506111846 7 344 1.6 3.2 0.00 0.00 0.00 91 1018.5
20260506111344 7 345 1.6 3.2 0.00 0.00 0.00 91 1018.6
20260506110841 7 342 1.6 1.6 0.00 0.00 0.00 91 1018.4
20260506110338 7 346 1.6 3.2 0.00 0.00 0.00 91 1018.5
20260506105835 7 344 1.6 3.2 0.00 0.00 0.00 91 1018.4
20260506105331 7 345 1.6 1.6 0.00 0.00 0.00 90 1018.7
20260506104829 7 346 3.2 3.2 0.00 0.00 0.00 90 1018.6
20260506104327 7 348 1.6 1.6 0.00 0.00 0.00 90 1018.5
20260506103824 7 358 1.6 3.2 0.00 0.00 0.00 90 1018.5
20260506103321 7 344 1.6 1.6 0.00 0.00 0.00 91 1018.5
20260506102819 7 341 1.6 1.6 0.00 0.00 0.00 91 1018.4
20260506102317 7 340 1.6 1.6 0.00 0.00 0.00 91 1018.7
20260506101814 7 340 0.0 0.0 0.00 0.00 0.00 91 1018.7
20260506101309 7 341 1.6 1.6 0.00 0.00 0.00 90 1018.5
20260506100808 7 335 1.6 3.2 0.00 0.00 0.00 90 1018.5
20260506100306 7 344 1.6 3.2 0.00 0.00 0.00 91 1018.4
20260506095804 7 333 1.6 1.6 0.00 0.00 0.00 91 1018.6
20260506095300 7 332 1.6 1.6 0.00 0.00 0.00 91 1018.7
20260506094757 7 322 1.6 1.6 0.00 0.00 0.00 91 1018.6
20260506094256 7 325 1.6 3.2 0.00 0.00 0.00 91 1018.7
20260506093754 7 326 0.0 1.6 0.00 0.00 0.00 90 1018.5
20260506093250 7 318 4.8 4.8 0.00 0.00 0.00 91 1018.3
20260506092749 7 322 1.6 3.2 0.00 0.00 0.00 91 1018.5
20260506092246 7 325 0.0 1.6 0.00 0.00 0.00 91 1018.5
20260506091743 7 325 1.6 1.6 0.00 0.00 0.00 91 1018.5
20260506091240 7 327 1.6 3.2 0.00 0.00 0.00 91 1018.6
20260506090738 7 323 3.2 3.2 0.00 0.00 0.00 92 1018.7
20260506090235 7 326 0.0 1.6 0.00 0.00 0.00 91 1018.5
20260506085732 8 326 0.0 1.6 0.00 0.00 0.00 91 1018.6
20260506085228 8 329 1.6 1.6 0.00 0.00 0.00 91 1018.6
20260506084725 8 338 0.0 1.6 0.00 0.00 0.00 90 1018.6
20260506084221 8 335 0.0 0.0 0.00 0.00 0.00 91 1018.9
20260506083718 8 325 0.0 1.6 0.00 0.00 0.00 90 1018.9
20260506083216 8 321 1.6 3.2 0.00 0.00 0.00 90 1018.8
20260506082713 8 317 1.6 3.2 0.00 0.00 0.00 91 1018.6
20260506082209 8 322 3.2 3.2 0.00 0.00 0.00 91 1018.8
20260506081706 8 320 3.2 3.2 0.00 0.00 0.00 91 1018.9
20260506081204 8 321 1.6 3.2 0.00 0.00 0.00 90 1018.9
20260506080702 8 318 1.6 1.6 0.00 0.00 0.00 90 1019.0
20260506080158 8 319 1.6 1.6 0.00 0.00 0.00 90 1018.9
20260506073142 8 323 0.0 1.6 0.00 0.00 0.00 90 1019.0
20260506072638 8 326 1.6 1.6 0.00 0.00 0.00 90 1018.9
20260506072136 8 327 0.0 0.0 0.00 0.00 0.00 89 1019.0
20260506071634 8 325 0.0 0.0 0.00 0.00 0.00 89 1018.8
20260506071131 8 325 0.0 0.0 0.00 0.00 0.00 89 1019.1
20260506070628 8 323 1.6 1.6 0.00 0.00 0.00 88 1018.9
20260506070125 9 326 0.0 0.0 0.00 0.25 0.25 87 1018.8
20260506062103 10 348 3.2 3.2 0.00 0.25 0.25 86 1018.7
20260506061558 9 339 1.6 1.6 0.00 0.25 0.25 86 1018.5
20260506061056 9 330 1.6 3.2 0.00 0.25 0.25 87 1018.4
20260506060555 9 337 0.0 1.6 0.00 0.25 0.25 86 1018.2
20260506051024 10 320 0.0 0.0 0.00 0.25 0.25 81 1017.8
20260506050521 11 315 1.6 3.2 0.00 0.25 0.25 80 1018.1
20260506045011 10 328 0.0 1.6 0.00 0.25 0.25 83 1017.6
20260506044510 10 326 0.0 0.0 0.00 0.25 0.25 84 1017.5
20260506044006 10 324 0.0 0.0 0.00 0.25 0.25 84 1017.5
20260506043503 10 321 0.0 0.0 0.00 0.25 0.25 84 1017.6
20260506043001 10 321 1.6 3.2 0.00 0.25 0.25 84 1017.6
20260506042500 10 329 0.0 0.0 0.00 0.25 0.25 84 1017.3
20260506041957 10 330 1.6 1.6 0.00 0.25 0.25 84 1017.3
20260506041456 10 331 0.0 1.6 0.00 0.25 0.25 83 1017.5
20260506040953 10 330 0.0 0.0 0.00 0.25 0.25 83 1017.2
20260506040450 10 330 0.0 0.0 0.00 0.25 0.25 84 1017.0
20260506035946 10 330 0.0 0.0 0.00 0.25 0.25 82 1017.2
20260506035443 10 330 0.0 0.0 0.00 0.25 0.25 83 1017.2
20260506034940 10 330 0.0 1.6 0.00 0.25 0.25 82 1016.8
20260506034438 11 329 0.0 0.0 0.00 0.25 0.25 81 1016.7
20260506033934 10 338 0.0 1.6 0.00 0.25 0.25 82 1016.7
20260506033432 11 336 0.0 1.6 0.00 0.25 0.25 81 1016.8
20260506032928 11 338 1.6 1.6 0.00 0.25 0.25 81 1016.7
20260506032425 11 335 0.0 0.0 0.00 0.25 0.25 81 1016.4
20260506031922 11 329 0.0 0.0 0.00 0.25 0.25 81 1016.6
20260506031419 11 325 0.0 1.6 0.00 0.25 0.25 79 1016.3
20260506030917 11 329 0.0 0.0 0.00 0.25 0.25 79 1016.2